Temperature
15 15 15 15 15 16 16 16 17 18 19 17 17 16 15 15 15 15 15 15 15 15 15 15 15 15 15 15 15 15 15 15 15 15 15 15 15 15
14 14 14 15 15 15 15 15 16 16 17 18 16 16 15 15 15 15 15 15 16 15 15 15 15 15 15 15 15 15 15 15 15 15 15 15 15 15
14 14 14 14 15 15 15 15 15 15 16 17 16 16 15 15 15 15 15 15 15 15 15 15 15 15 15 15 15 15 15 15 15 15 15 15 15 15
14 14 14 14 14 15 15 15 15 15 15 15 16 16 15 14 15 15 15 15 15 15 15 15 15 15 15 15 15 15 15 15 15 15 15 15 15 15
14 14 14 14 14 14 14 15 15 15 14 15 15 15 15 14 14 14 15 15 15 15 15 15 15 15 15 15 15 15 15 15 15 15 15 15 15 15
14 14 14 14 14 14 14 14 14 14 14 14 15 15 14 14 14 14 14 14 14 15 15 14 14 15 15 15 15 15 15 15 15 15 15 15 14 14
14 14 14 14 14 14 14 14 14 14 14 14 14 14 14 14 13 14 14 14 14 14 14 14 14 14 14 14 14 14 14 14 14 14 14 14 14 14
14 14 14 14 14 14 13 13 13 13 13 13 13 13 13 12 12 12 12 12 12 13 13 13 13 13 13 13 13 13 13 13 14 14 14 14 14 14
13 13 13 13 13 13 13 13 12 12 12 12 12 12 11 11 11 11 11 11 11 11 11 11 12 12 12 13 12 12 12 12 13 13 13 13 13 13
12 12 12 12 12 12 11 11 11 11 11 11 11 10 10 10 10 10 10 10 10 10 10 10 11 11 12 12 12 11 11 11 12 12 12 12 12 13
11 11 11 11 11 11 10 10 10 9 10 10 10 10 10 10 10 9 9 9 10 10 10 10 10 10 10 11 11 11 10 10 11 11 11 11 12 12
10 10 10 10 10 10 9 9 9 8 8 8 8 8 8 8 8 8 7 8 8 9 9 8 9 9 9 10 10 10 10 10 10 10 10 10 10 10
9 9 8 8 8 8 8 8 8 8 7 7 7 7 7 7 7 7 6 6 6 7 7 7 7 7 7 8 8 8 9 9 9 9 9 9 10 10
8 7 7 7 7 7 7 7 7 7 6 6 7 7 7 6 6 6 5 5 5 5 5 5 5 5 6 6 7 7 8 8 8 8 9 9 9 9
7 7 7 7 7 6 6 6 6 5 5 6 6 6 5 5 5 4 4 4 4 5 5 5 5 5 5 5 6 6 7 7 7 8 8 8 9 9
6 6 6 6 5 5 5 5 4 4 4 4 4 4 4 4 4 4 4 4 4 4 5 4 4 4 4 5 5 5 6 6 7 7 7 8 8 8
5 5 5 5 5 5 4 4 4 3 3 3 3 3 3 3 3 3 3 3 3 3 4 4 4 4 4 4 4 5 6 6 6 7 7 7 7 8
5 5 5 4 4 4 3 3 3 3 2 2 2 2 2 2 2 2 2 2 2 2 3 3 3 3 4 4 4 5 5 5 5 6 6 6 7 7
4 4 3 3 3 2 2 2 2 2 1 1 1 1 1 1 1 1 1 1 1 1 2 2 2 2 3 3 4 4 4 4 5 5 5 6 6 6
3 3 2 2 2 1 1 1 1 1 1 1 1 1 1 1 1 1 1 1 1 1 1 1 2 2 2 2 3 3 4 4 4 4 5 5 6 6
2 2 1 1 1 0 0 -0 -0 -0 -0 -0 0 0 -0 -0 -0 0 0 0 0 0 0 1 1 1 1 2 2 3 4 4 4 4 4 5 5 6
1 1 1 0 0 -0 -0 -0 -1 -1 -1 -1 -1 -1 -1 -1 -1 -1 -1 -1 -0 -0 -0 0 1 1 1 2 2 2 3 4 4 5 5 5 5 5
1 0 0 -0 -0 -0 -1 -1 -1 -1 -1 -1 -1 -1 -1 -1 -1 -1 -1 -1 -1 -0 -0 -0 0 1 1 1 2 2 3 3 4 4 5 5 5 5
Wind_Speed
4 5 5 3 3 3 3 4 5 5 4 4 5 4 4 4 3 6 7 8 10 11 13 13 14 14 15 15 15 15 14 15 15 15 15 15 16 16
3 3 4 5 4 4 4 4 5 6 6 2 3 4 3 6 5 7 9 8 13 15 15 16 17 17 18 18 19 19 18 18 18 18 18 18 18 18
6 6 6 5 5 5 5 5 5 6 6 6 5 4 5 8 6 7 10 10 12 17 17 17 18 19 20 21 21 22 22 22 21 21 21 21 20 20
8 7 7 6 7 7 6 7 6 6 7 8 7 6 7 7 7 8 10 11 11 11 16 17 19 20 21 22 23 23 24 24 24 24 23 23 23 22
8 8 8 7 8 7 7 7 7 7 7 8 9 6 7 7 7 9 10 9 12 12 14 18 21 22 23 23 24 24 25 25 25 25 25 25 25 25
7 6 6 6 6 6 6 6 7 7 7 8 9 8 7 7 7 9 9 8 9 11 12 13 16 20 23 25 25 25 25 26 26 26 26 26 27 27
4 3 2 1 3 3 4 4 5 6 7 7 8 8 7 6 7 8 9 10 10 11 11 11 11 12 14 20 24 26 26 25 25 25 26 26 27 27
1 1 1 2 3 2 3 4 4 5 6 7 7 7 7 7 7 8 10 11 11 8 9 11 11 12 13 16 15 15 19 21 23 24 25 26 26 27
2 2 1 3 2 1 0 1 1 2 3 5 7 7 7 7 8 10 10 11 13 12 12 14 13 14 14 17 15 14 16 19 21 24 25 26 26 27
4 3 3 3 4 3 2 1 2 2 2 4 5 7 7 7 8 10 12 13 14 13 12 14 14 14 14 14 15 15 18 21 23 25 25 25 25 26
4 4 3 3 6 7 3 3 4 4 3 4 5 7 9 9 9 9 11 12 14 13 11 13 14 14 14 14 15 15 17 19 21 23 24 25 25 25
3 4 8 7 7 7 5 5 6 6 8 7 6 8 9 9 9 8 10 11 13 12 10 10 13 13 13 12 11 12 13 17 21 24 25 26 26 21
3 3 5 7 6 6 6 5 5 8 9 9 9 8 8 7 7 8 7 9 11 12 11 12 13 14 15 15 15 14 14 14 15 16 19 23 24 20
3 3 4 5 4 5 5 5 7 9 9 8 8 8 8 8 8 9 10 12 12 14 15 14 13 14 15 17 16 15 15 15 15 16 16 18 19 23
4 4 2 3 6 5 4 6 8 7 8 9 9 9 9 9 9 10 11 12 14 15 16 14 13 13 14 16 17 16 16 16 16 16 16 16 16 15
3 2 8 9 7 5 5 5 6 6 8 9 9 9 9 9 9 10 10 11 12 12 13 15 14 14 14 16 16 17 17 16 15 16 16 16 16 16
8 6 5 5 6 6 6 6 7 7 7 8 9 10 10 10 10 10 10 11 12 13 13 11 13 13 14 15 16 16 16 16 16 15 15 17 17 17
9 6 6 6 7 8 8 8 8 8 8 9 9 10 10 11 11 11 11 12 12 13 13 13 13 13 14 14 13 16 15 15 15 15 16 17 18 17
6 6 6 7 8 8 8 9 9 9 9 10 10 10 10 10 11 11 11 11 12 13 13 13 13 13 14 16 14 12 15 16 16 16 16 16 18 17
6 7 7 7 8 8 9 9 9 10 10 10 10 10 11 11 11 12 12 13 13 13 14 13 12 12 13 15 16 18 17 17 15 16 16 16 17 18
7 7 8 8 8 8 9 9 10 10 11 11 11 11 11 11 12 12 12 14 13 13 14 14 13 15 15 13 14 15 16 16 17 16 17 17 17 16
7 8 8 8 8 8 9 9 10 10 11 11 11 11 11 12 13 14 13 13 12 13 15 14 15 14 13 14 15 17 18 18 17 18 20 19 15 14
7 8 8 8 8 8 9 10 12 11 11 11 11 11 12 12 12 12 13 13 13 14 14 14 14 13 13 14 15 15 18 19 16 16 15 15 17 22
Wind_Direction
211 206 234 221 235 251 260 270 278 274 247 187 219 188 222 238 195 245 249 211 223 237 242 245 247 249 252 253 255 256 256 256 256 256 255 254 254 253
239 242 246 243 232 241 249 252 261 274 280 258 227 235 265 274 209 244 256 220 231 237 241 245 248 250 252 253 254 255 255 255 256 256 256 255 255 254
222 223 230 256 250 245 241 246 247 255 264 269 252 239 242 266 261 260 259 253 247 223 231 242 249 252 253 254 254 254 254 254 254 254 254 254 254 254
226 229 233 229 232 251 252 250 252 257 261 270 272 258 238 248 256 263 265 260 265 229 221 239 249 253 255 256 256 255 254 254 254 254 254 253 253 252
231 231 235 237 237 242 245 253 254 249 251 264 267 271 266 260 261 261 263 264 268 259 229 235 243 249 254 256 256 256 256 255 255 255 255 255 254 253
236 237 239 240 244 249 248 254 263 267 261 263 270 271 265 264 264 271 273 261 269 279 277 266 251 244 248 251 253 254 254 254 255 255 255 255 255 254
223 225 229 59 24 330 292 283 277 271 272 272 275 281 283 293 287 293 290 292 283 279 280 277 271 265 259 249 246 249 249 251 254 255 256 256 256 255
184 157 122 84 69 58 15 2 340 294 287 287 284 290 298 303 303 297 296 293 290 294 297 288 287 283 280 275 269 255 247 250 254 257 259 259 258 257
106 100 87 62 46 18 104 211 343 5 318 296 296 305 309 314 312 298 293 291 289 294 295 286 283 280 279 279 275 264 257 257 260 262 262 262 261 260
83 84 82 53 29 359 335 330 303 295 290 290 305 303 306 313 302 292 291 284 277 271 268 277 283 283 285 286 283 270 263 262 263 264 264 264 263 262
79 69 66 66 34 357 333 321 308 299 231 228 269 281 288 285 287 291 288 286 287 288 286 284 289 292 291 287 280 265 257 260 263 264 264 263 263 264
91 91 66 48 33 360 335 323 313 317 316 305 280 268 270 266 243 260 283 288 291 292 298 300 295 298 293 286 287 292 285 273 263 258 256 256 257 264
35 39 63 54 25 354 323 324 331 313 297 290 287 286 284 283 278 276 280 285 289 288 298 304 297 294 288 289 292 291 290 290 287 279 265 255 250 249
18 20 45 33 343 315 318 343 312 294 292 297 298 300 302 303 305 304 297 289 283 284 289 289 286 287 289 289 290 291 290 289 289 286 285 278 261 246
28 54 353 285 285 270 220 262 285 296 309 307 306 309 313 315 310 301 293 287 281 278 278 278 280 284 283 283 287 289 289 287 283 282 281 279 279 275
348 249 220 233 252 284 293 281 301 319 317 309 310 311 309 307 304 305 304 305 300 296 292 290 285 283 282 282 284 286 285 284 283 282 283 282 279 274
326 308 315 328 325 330 329 330 325 322 316 315 312 309 308 305 304 305 303 301 298 299 301 298 293 289 283 283 284 283 285 285 285 286 285 283 280 276
309 327 340 338 334 334 330 327 326 326 324 317 313 311 310 309 309 309 306 302 301 300 301 302 304 301 295 287 273 284 288 291 293 292 288 285 283 280
316 352 348 344 339 334 331 330 329 329 324 316 315 315 313 310 307 305 304 303 302 302 302 302 301 299 298 297 295 287 294 296 294 291 287 284 284 284
359 355 349 344 337 334 332 330 326 323 322 321 317 315 314 312 312 311 309 308 306 304 302 299 297 298 297 296 296 295 287 286 289 289 290 290 286 281
357 352 346 341 336 333 331 326 322 320 320 318 315 315 315 313 310 309 308 305 301 299 299 299 300 300 294 291 287 288 292 287 280 281 287 289 290 288
351 346 341 334 331 330 326 324 321 319 319 318 319 318 315 312 308 306 304 303 302 300 300 300 302 301 298 295 294 296 299 300 293 276 264 264 277 282
348 342 335 335 336 333 330 326 322 320 322 322 320 317 315 311 308 305 303 301 300 301 302 302 304 302 298 295 295 297 298 302 303 304 299 285 265 259
Height
1563 1564 1565 1566 1567 1567 1568 1569 1570 1568 1568 1568 1569 1569 1569 1569 1568 1568 1568 1567 1567 1567 1567 1567 1566 1566 1566 1565 1565 1564 1564 1564 1563 1563 1563 1563 1563 1563
1561 1562 1562 1564 1565 1565 1566 1566 1567 1568 1567 1567 1567 1567 1566 1566 1565 1565 1565 1564 1563 1563 1563 1562 1562 1562 1561 1561 1560 1560 1559 1559 1558 1558 1557 1557 1557 1557
1559 1560 1560 1561 1562 1563 1564 1564 1564 1565 1564 1565 1564 1564 1562 1562 1562 1561 1561 1560 1560 1558 1558 1557 1557 1556 1556 1555 1555 1554 1553 1553 1552 1552 1551 1551 1551 1551
1557 1557 1558 1559 1559 1560 1561 1561 1561 1561 1561 1561 1561 1561 1559 1558 1557 1556 1557 1557 1556 1554 1552 1552 1551 1550 1549 1549 1548 1547 1547 1546 1546 1545 1545 1544 1544 1544
1554 1554 1555 1555 1555 1557 1556 1558 1558 1558 1557 1557 1556 1556 1555 1554 1553 1552 1552 1550 1550 1550 1547 1545 1544 1543 1542 1541 1541 1540 1539 1539 1538 1538 1537 1537 1537 1536
1550 1551 1551 1552 1552 1553 1553 1553 1553 1553 1553 1552 1552 1552 1551 1550 1549 1548 1547 1546 1544 1544 1542 1540 1538 1536 1534 1533 1533 1532 1531 1531 1530 1530 1529 1529 1528 1528
1547 1547 1547 1548 1548 1548 1549 1549 1549 1549 1549 1548 1547 1547 1546 1545 1544 1543 1541 1540 1538 1538 1535 1534 1532 1530 1528 1526 1524 1523 1522 1522 1521 1521 1520 1520 1519 1519
1543 1543 1543 1543 1543 1543 1544 1544 1544 1544 1543 1543 1542 1542 1540 1540 1538 1537 1535 1534 1532 1532 1529 1526 1525 1522 1521 1519 1518 1515 1514 1513 1512 1511 1510 1510 1509 1509
1539 1539 1540 1540 1539 1539 1539 1539 1538 1538 1538 1538 1537 1536 1534 1533 1531 1530 1529 1527 1525 1523 1522 1518 1517 1514 1513 1511 1509 1506 1504 1503 1502 1501 1500 1499 1498 1498
1536 1536 1536 1536 1536 1536 1535 1535 1534 1533 1533 1532 1531 1529 1528 1526 1525 1523 1522 1519 1517 1516 1514 1511 1509 1507 1504 1502 1499 1497 1495 1493 1492 1490 1489 1488 1487 1486
1534 1534 1533 1533 1533 1532 1532 1531 1530 1529 1528 1526 1525 1523 1522 1520 1518 1517 1516 1514 1512 1510 1509 1506 1502 1499 1496 1493 1491 1488 1486 1484 1482 1480 1478 1477 1476 1475
1532 1532 1531 1530 1529 1529 1528 1527 1527 1525 1524 1522 1520 1517 1516 1514 1512 1510 1509 1508 1505 1503 1502 1499 1495 1492 1487 1485 1484 1481 1479 1476 1473 1471 1469 1467 1466 1464
1532 1531 1529 1527 1526 1525 1524 1523 1521 1520 1519 1517 1515 1514 1512 1510 1508 1506 1503 1501 1499 1496 1495 1493 1489 1486 1483 1478 1476 1473 1471 1468 1466 1463 1460 1458 1457 1455
1530 1529 1527 1525 1523 1522 1520 1519 1517 1515 1514 1513 1511 1509 1507 1505 1503 1500 1497 1494 1492 1489 1487 1485 1482 1479 1476 1471 1467 1465 1463 1460 1457 1454 1452 1450 1447 1445
1527 1525 1523 1522 1520 1519 1517 1515 1513 1512 1511 1509 1507 1505 1502 1499 1496 1493 1491 1488 1485 1483 1481 1479 1476 1473 1470 1465 1461 1458 1455 1452 1449 1446 1443 1441 1439 1437
1525 1523 1521 1519 1518 1516 1515 1513 1512 1510 1507 1505 1503 1500 1497 1494 1492 1489 1486 1483 1480 1477 1475 1473 1469 1466 1462 1458 1455 1450 1447 1444 1441 1438 1435 1431 1429 1426
1522 1522 1521 1519 1517 1515 1513 1511 1509 1506 1504 1501 1499 1496 1493 1490 1487 1485 1481 1478 1475 1471 1468 1465 1463 1459 1455 1452 1447 1443 1440 1437 1433 1430 1426 1421 1419 1416
1520 1521 1519 1517 1515 1513 1511 1508 1506 1503 1501 1498 1495 1492 1489 1486 1483 1479 1476 1473 1469 1466 1462 1459 1455 1451 1447 1444 1442 1437 1433 1429 1425 1422 1418 1413 1408 1406
1520 1519 1517 1515 1513 1510 1508 1505 1503 1500 1497 1494 1491 1488 1485 1481 1478 1475 1471 1468 1464 1460 1456 1453 1450 1446 1441 1435 1432 1431 1426 1421 1417 1413 1409 1405 1399 1396
1519 1517 1515 1513 1510 1508 1505 1502 1499 1496 1494 1491 1487 1484 1481 1477 1473 1470 1466 1462 1458 1454 1450 1447 1444 1440 1436 1431 1425 1420 1419 1414 1410 1405 1400 1396 1391 1386
1518 1515 1513 1511 1508 1505 1502 1499 1496 1493 1490 1487 1484 1480 1476 1473 1469 1465 1461 1457 1453 1448 1444 1441 1437 1434 1429 1424 1419 1413 1410 1407 1403 1398 1393 1388 1382 1378
1516 1514 1511 1509 1506 1503 1500 1497 1494 1490 1487 1483 1480 1476 1472 1468 1464 1460 1456 1452 1447 1443 1439 1434 1431 1427 1423 1419 1413 1407 1402 1398 1394 1390 1386 1382 1376 1370
1515 1512 1509 1507 1504 1501 1498 1494 1491 1487 1483 1479 1475 1471 1467 1463 1459 1455 1451 1446 1442 1438 1433 1429 1425 1421 1417 1413 1408 1402 1396 1391 1386 1382 1377 1373 1369 1364